Regional Weather Roundup
Issued by NWS

Home | Current Version | Previous Version | Text Only | Print | Product List | Glossary Off
Versions: 1 2 3 4 5 6 7 8 9 10 11 12 13 14 15 16 17 18 19 20 21 22 23 24 25 26 27 28 29 30 31 32 33 34 35 36 37 38 39 40 41 42 43 44 45 46 47 48 49 50

000
ASUS43 KMPX 291401
RWRMN
WEATHER ROUNDUP FOR MINNESOTA
NATIONAL WEATHER SERVICE TWIN CITIES/CHANHASSEN MN
900 AM CDT TUE JUL 29 2014


NOTE: "FAIR" INDICATES FEW OR NO CLOUDS BELOW 12,000 FEET WITH NO
SIGNIFICANT WEATHER AND/OR OBSTRUCTIONS TO VISIBILITY. N/A MEANS
CURRENT SKY AND/OR WEATHER CONDITIONS ARE NOT AVAILABLE.

MNZ060>063-068>070-291500-
   Twin Cities Metro

CITY           SKY/WX    TMP DP  RH WIND       PRES   REMARKS
TWIN CITIES    MOSUNNY   68  57  68 NW6       30.14S
ST PAUL        SUNNY     67  57  70 NW7       30.14S
CRYSTAL        SUNNY     69  56  62 NW5       30.13S
BLAINE         MOSUNNY   66  59  77 W7        30.14R
LAKEVILLE      SUNNY     64  57  77 NW6       30.14S
EDEN PRAIRIE   SUNNY     68  57  68 NW7       30.14R
SOUTH ST PAUL  SUNNY     68  56  67 N5        30.13F
LAKE ELMO      FAIR      64  59  82 NW6       30.14S
$$
MNZ001>005-007-008-013>017-022>024-027-028-291500-
   Northwest Minnesota

CITY           SKY/WX    TMP DP  RH WIND       PRES   REMARKS
BEMIDJI        SUNNY     64  55  71 NW9       30.16S
HALLOCK        SUNNY     63  55  77 NW5       30.17S
ROSEAU         SUNNY     64  57  77 W7        30.15S
WARROAD        SUNNY     63  57  82 NW5       30.15S
THIEF RVR FALL SUNNY     64  55  72 NW6       30.18R
CROOKSTON      SUNNY     63  57  82 CALM      30.19
FOSSTON        SUNNY     63  55  77 W5        30.19S
DETROIT LAKES  SUNNY     63  55  77 NW8       30.20S
MOORHEAD       SUNNY     63  61  94 CALM      30.20S
PARK RAPIDS    SUNNY     65  56  72 NW8       30.17S
$$
MNZ006-009>011-018-025>026-291500-
   North Central Minnesota

CITY           SKY/WX    TMP DP  RH WIND       PRES   REMARKS
BAUDETTE       SUNNY     65  58  78 NW7       30.13F
FLAG ISLAND    SUNNY     64  55  72 NW14      30.11S
INTL FALLS     SUNNY     65  57  75 NW7       30.08F
WASKISH        SUNNY     66  57  72 NW3       30.14S
BIG FORK       SUNNY     64  55  72 NW5       30.13S
LONGVILLE      SUNNY     64  61  88 W8        30.14S
GRAND RAPIDS   MOSUNNY   64  55  72 NW8       30.13S
CRANE LAKE     MOSUNNY   61  57  88 W3        30.09S
ORR            MOSUNNY   63  55  77 NW7       30.07S
COOK           MOSUNNY   63  57  82 W7        30.10S
$$
MNZ012-019>021-037-291500-
   Northeast Minnesota

CITY           SKY/WX    TMP DP  RH WIND       PRES   REMARKS
DULUTH         MOSUNNY   66  55  67 NW9       30.07F
ELY            MOSUNNY   63  55  77 W7        30.07S
HIBBING        PTSUNNY   67  57  70 NW12      30.10S
EVELETH        MOSUNNY   64  54  68 NW9G17    30.10S
DULUTH HARBOR  MOSUNNY   64  57  77 SW8       30.07F
TWO HARBORS    SUNNY     66  55  68 NW8       30.03F
SILVER BAY     MOSUNNY   66  57  72 CALM      30.03S
GRAND MARAIS     N/A     68  55  63 NW9G21    30.00F
G MARAIS ARPRT MOSUNNY   63  52  67 NW6       30.06S
$$
MNZ029>031-032-039>041-046>048-054>057-064-291500-
   West Central Minnesota

CITY           SKY/WX    TMP DP  RH WIND       PRES   REMARKS
FERGUS FALLS   SUNNY     64  54  68 N5        30.19F
WHEATON        SUNNY     61  55  82 W5        30.22S
MORRIS         SUNNY     63  57  82 NW5       30.19S
ALEXANDRIA     SUNNY     66  55  67 N8        30.20S
ELBOW LAKE     FAIR      61  57  87 NW5       30.19S
WADENA         SUNNY     63  57  82 NW7       30.18S
GLENWOOD       SUNNY     66  57  72 NW8       30.19S
APPLETON       SUNNY     64  57  77 NW6       30.19S
BENSON         SUNNY     63  57  82 N5        30.19S
ORTONVILLE     SUNNY     64  54  68 NW8       30.20S
MADISON        MOSUNNY   64  57  77 NW5       30.21R
WILLMAR        FAIR      64  55  72 NW7       30.19F
$$
MNZ033>034-036-042>043-049>051-058-059-291500-
   Central Minnesota

CITY           SKY/WX    TMP DP  RH WIND       PRES   REMARKS
ST CLOUD       SUNNY     68  56  65 NW7       30.15S
SAUK CENTRE    FAIR      64  56  75 NW9       30.18S
PAYNESVILLE    SUNNY     63  56  77 W5        30.18S HAZE
AITKIN         SUNNY     68  61  77 NW5       30.12S
PINE RIVER     SUNNY     64  57  77 NW6       30.18S
BRAINERD       SUNNY     65  56  72 NW8       30.16R
STAPLES        CLOUDY    64  55  72 NW7       30.17S
LONG PRAIRIE   PTSUNNY   63  55  77 NW7       30.19R
LITTLE FALLS   SUNNY     63  54  72 NW6       30.16S
LITCHFIELD     SUNNY     66  57  72 NW8       30.17F
BUFFALO        SUNNY     66  54  64 W5        30.16S
MAPLE LAKE     SUNNY     67  58  74 NW7       30.17S
$$
MNZ037-044-045-052-053-291500-
   East Central Minnesota

CITY           SKY/WX    TMP DP  RH WIND       PRES   REMARKS
PRINCETON      SUNNY     66  57  72 W7        30.14S
MORA           SUNNY     64  59  82 NW5       30.14F
CAMBRIDGE      SUNNY     68  55  64 NW5       30.12R
RUSH CITY      SUNNY     65  59  80 CALM      30.12F
MOOSE LAKE     CLOUDY    63  55  77 NW5       30.09F
HINCKLEY       FAIR      64  59  82 NW7       30.11S
CLOQUET        MOSUNNY   64  57  77 W8        30.09F
MCGREGOR       SUNNY     63  59  88 NW6       30.13F
$$
MNZ071>073-080-081-089-090-097-098-291500-
   Southwest Minnesota

CITY           SKY/WX    TMP DP  RH WIND       PRES   REMARKS
MONTEVIDEO     SUNNY     64  61  88 NW6       30.21R
GRANITE FALLS  SUNNY     61  56  86 W6        30.21S
CANBY          SUNNY     64  55  73 NW7       30.22S
MARSHALL       SUNNY     63  54  72 NW8       30.20S
REDWOOD FALLS  SUNNY     64  56  75 MISG      30.19S
OLIVIA         SUNNY     63  55  77 NW3       30.18S
PIPESTONE      SUNNY     63  54  72 N5        30.23S
WINDOM         SUNNY     64  55  72 NW6       30.21R
WORTHINGTON    SUNNY     63  55  77 N8        30.23R
JACKSON        SUNNY     63  55  77 NW6       30.21R
TRACY          SUNNY     64  56  75 NW6       30.22R
SLAYTON        SUNNY     62  56  80 CALM      30.23S
$$
MNZ065>067-074>077-082>085-091>093-291500-
   South Central Minnesota

CITY           SKY/WX    TMP DP  RH WIND       PRES   REMARKS
MANKATO        SUNNY     63  54  72 NW8       30.17S
NEW ULM        SUNNY     63  57  82 NW7       30.18S
ST JAMES       SUNNY     64  55  72 NW6       30.20R
FAIRMONT       SUNNY     64  54  68 NW7       30.19S
GLENCOE        SUNNY     67  56  70 NW7       30.16S
FARIBAULT      SUNNY     70  55  60 NW5       30.15F
OWATONNA       SUNNY     64  57  77 NW7       30.16S
WASECA         SUNNY     61  55  82 W3        30.18S
ALBERT LEA     SUNNY     63  57  82 NW3       30.16S
$$
MNZ078>079-086>088-094>096-291500-
   Southeast Minnesota

CITY           SKY/WX    TMP DP  RH WIND       PRES   REMARKS
ROCHESTER      SUNNY     65  58  78 NW8       30.16R
RED WING       SUNNY     66  59  77 W6        30.11F
STANTON        SUNNY     66  58  75 NW3       30.13S
DODGE CENTER   SUNNY     64  59  82 N9        30.15S
WINONA         SUNNY     64  57  77 NW3       30.12S
AUSTIN         SUNNY     64  57  77 N7        30.15S
PRESTON        SUNNY     63  61  93 N7        30.14S
$$
ABBREVIATIONS USED IN REMARKS
   TC - TEMPERATURES IN CELSIUS
  WCI - WIND CHILL INDEX
   HX - HEAT INDEX
  VSB - VISIBILITY
$$


USA.gov is the U.S. government's official web portal to all federal, state and local government web resources and services.